Find Starlink 32849

NORAD ID: 62872 Int'l Des: 2025-022 Owner: SPXS Country: US Constellation: starlink operational
LEOCIRCULAR

リアルタイム位置

3D地球を読み込み中...

Starlink 32849について

説明を読み込み中...

次回通過

Passes for default location (London). Set your location on the main map for personalized predictions.

高度履歴

Loading altitude history...

軌道要素

1 62872U 25022U 26125.56487602 .00023044 00000-0 78760-3 0 9994
2 62872 53.1570 225.7439 0000967 70.9394 289.1712 15.30205596 70603
Epoch: May 5, 2026 • Age: 6 hours

現在のステータス

高度 478.9 km
速度 7.63 km/s
衛星直下点 -12.71°S, 96°W
打ち上げ日 Feb 2, 2025
運用期間 1.2 years
タイプ internet

技術仕様

分類 Payload
質量 730.00 kg
乾燥質量 700.00 kg
総質量 730.00 kg
長さ 0.30 m
直径 4.10 m
スパン 29.00 m
形状 Box + pan
製造者 SPXS
バスタイプ Starlink V2M
フェーズステータス In Orbit
所有者/国 SPXS/US

Most Searched